Regional Weather Roundup
Issued by NWS Sioux Falls, SD

Home | Current Version | Previous Version | Graphics & Text | Print | Product List | Glossary On
Versions: 1 2 3 4 5 6 7 8 9 10 11 12 13 14 15 16 17 18 19 20 21 22 23 24 25 26 27 28 29 30 31 32 33 34 35 36 37 38 39 40 41 42 43 44 45 46 47 48 49 50
000
ASUS43 KFSD 190202
RWRFSD

WEATHER ROUNDUP FOR SE SOUTH DAKOTA/SW MINNESOTA/NW IOWA
NATIONAL WEATHER SERVICE SIOUX FALLS SD
900 PM CDT THU SEP 18 2014

NOTE: "FAIR" INDICATES FEW OR NO CLOUDS BELOW 12,000 FEET WITH NO
SIGNIFICANT WEATHER AND OR OBSTRUCTIONS TO VISIBILITY.


SDZ038>040-050-052>070-190300-
SOUTHEAST SOUTH DAKOTA

CITY           SKY/WX    TMP DP  RH WIND       PRES   REMARKS
CHAMBERLAIN    CLEAR     65  60  82 SE9       29.80R
HURON          MOCLDY    67  57  70 SE12      29.82F
MADISON        FAIR      63  57  82 S10G16    29.90S
MITCHELL       PTCLDY    68  59  73 SE15G25   29.85S
SIOUX FALLS    MOCLDY    67  56  67 SE15      29.91F
WINNER         FAIR      72  62  71 S14       29.80R
YANKTON        PTCLDY    66  59  77 SE12      29.89S
$$

MNZ071-072-080-081-089-090-097-098-190300-
SOUTHWEST MINNESOTA

CITY           SKY/WX    TMP DP  RH WIND       PRES   REMARKS
FAIRMONT       CLEAR     57  43  58 S8        30.00S
JACKSON        PTCLDY    61  46  59 S8        30.00R
LUVERNE        CLEAR     63  54  72 SE7       29.95S
MARSHALL       PTCLDY    64  52  63 S10       29.91F
MONTEVIDEO     CLEAR     66  52  59 S10       29.91F
PIPESTONE      PTCLDY    63  54  72 S13       29.93F
REDWOOD FALLS  PTCLDY    62  52  69 S9        29.95R
TRACY          MOCLDY    63  52  66 S9        29.95S
WINDOM         PTCLDY    63  52  67 SE9       29.98R
WORTHINGTON    MOCLDY    61  52  72 S9        29.98S
$$

IAZ001>003-012>014-020>022-031-032-NEZ013-014-SDZ071-190300-
NORTHWEST IOWA

CITY           SKY/WX    TMP DP  RH WIND       PRES   REMARKS
CHEROKEE       CLEAR     61  57  86 SE8       29.99R
DENISON        CLEAR     61  54  77 SE6       29.98R
ESTHERVILLE    CLEAR     61  48  62 S13       29.99R
LE MARS          N/A     64  57  77 SE9       29.96R
ORANGE CITY    CLEAR     64  55  72 SE6       29.97R
SHELDON        CLEAR     63  57  82 SE9       29.96S
SIOUX CITY     CLEAR     65  57  75 SE9       29.95R
SPENCER        MOCLDY    61  53  75 SE9       29.99R
STORM LAKE     CLEAR     59  57  94 SE9       30.01R
$$

ABBREVIATIONS USED IN REMARKS
   TC - TEMPERATURE IN CELSIUS
  WCI - WIND CHILL INDEX
   HX - HEAT INDEX
  VSB - VISIBILITY




USA.gov is the U.S. government's official web portal to all federal, state and local government web resources and services.